Location: New Canada
(47.1017°N, 68.5042°W)
Time: 21:42:03
(UTC+00:00)

RS-44 - Pass Details

Date: 06 April 2023
Orbit: 1175 x 1510 km, 82.5° (Epoch: 02 June)

Event Time Altitude Azimuth Distance (km) Brightness Sun altitude
Rises 05:42:40 0° 348° (NNW) 4,437 ? -34.6°
Reaches altitude 10° 05:45:26 10° 346° (NNW) 3,500 ? -34.4°
Enters shadow 05:53:39 67° 272° (W) 1,570 ? -33.9°
